Regional Weather Roundup
Issued by NWS

Home | Current Version | Previous Version | Text Only | Print | Product List | Glossary Off
Versions: 1 2 3 4 5 6 7 8 9 10 11 12 13 14 15 16 17 18 19 20 21 22 23 24 25 26 27 28 29 30 31 32 33 34 35 36 37 38 39 40 41 42 43 44 45 46 47 48

000
ASUS43 KDMX 281707
RWRIA

WEATHER ROUNDUP FOR IOWA
NATIONAL WEATHER SERVICE DES MOINES IA
1200 PM CDT THU MAY 28 2015

NOTE: "FAIR" INDICATES FEW OR NO CLOUDS BELOW 12,000 FEET WITH NO
SIGNIFICANT WEATHER AND/OR OBSTRUCTIONS TO VISIBILITY.

* - THESE STATIONS ARE NOT NWS STATIONS...THUS NOT UNDER NWS
QUALITY CONTROL.  THEY ALSO DO NOT REPORT WEATHER SUCH
AS PRECIPITATION OR FOG.

IAZ001>003-012>014-020>022-031>034-043>046-281800-
   NORTHWEST IOWA

CITY           SKY/WX    TMP DP  RH WIND       PRES   REMARKS
CARROLL *      SUNNY     75  59  57 S21       30.06S
CHEROKEE *     MOSUNNY   77  55  47 S17G23    30.03F
DENISON *      SUNNY     73  61  64 SE15      30.02S
LE MARS *      SUNNY     77  57  50 S16G22    30.01F
ORANGE CITY *  SUNNY     75  54  46 S18       30.02F
SHELDON *      SUNNY     77  63  61 S20       30.02F
SIOUX CITY     MOSUNNY   77  59  53 S9        30.00F
SPENCER        MOSUNNY   78  55  44 S21G30    30.04F
STORM LAKE *   SUNNY     77  55  47 S21       30.06S
$$

IAZ055>058-069>071-079>083-090>094-281800-
   SOUTHWEST IOWA

CITY           SKY/WX    TMP DP  RH WIND       PRES   REMARKS
ATLANTIC *     MOSUNNY   73  61  64 SE9       30.04F
AUDUBON *      SUNNY     72  61  68 SE12      30.07S
CLARINDA *     SUNNY     73  63  68 SE8       30.07R
COUNCIL BLFS * SUNNY     70  64  83 SE10      30.04R
CRESTON *      SUNNY     72  61  68 SE14      30.07S
HARLAN  *      SUNNY     72  63  73 SE12G18   30.07S
LAMONI         CLOUDY    74  60  61 SE12G20   30.10R
RED OAK *      CLOUDY    70  63  78 SE10      30.05R
SHENANDOAH *   MOSUNNY   72  64  78 SE12      30.05S
$$

IAZ047>049-059>061-072>074-084-281800-
   CENTRAL IOWA

CITY           SKY/WX    TMP DP  RH WIND       PRES   REMARKS
AMES           CLOUDY    76  58  53 S16G24    30.09S
ANKENY *       SUNNY     77  59  53 S14       30.09S
CHARITON *     SUNNY     75  61  60 S14G22    30.10S
DES MOINES     CLOUDY    78  59  51 S17       30.09S
GRINNELL*      PTSUNNY   75  57  53 S18       30.11F
KNOXVILLE *    SUNNY     79  57  47 S12       30.09S HX  80
MARSHALLTOWN   PTSUNNY   77  56  48 S16       30.10F
PELLA *        PTSUNNY   77  63  61 SE13G20   30.11F
PERRY *          N/A     75  59  57 SE17      30.08S
$$

IAZ004>006-015-016-023>025-035-036-281800-
   NORTH CENTRAL IOWA

CITY           SKY/WX    TMP DP  RH WIND       PRES   REMARKS
ALGONA *       MOSUNNY   77 -31   1 S21       30.07F
CLARION *      SUNNY     79  54  41 S20       30.08F
ESTHERVILLE    MOSUNNY   77  56  48 S22G31    30.05F
FORT DODGE *   PTSUNNY   75  59  57 S14G23    30.08F
MASON CITY     MOSUNNY   77  56  48 S18       30.10F
FOREST CITY *  SUNNY     73  55  53 S16       30.08F
IOWA FALLS *     N/A     77  57  50 S16G23    30.11F
$$

IAZ007>011-017>019-026>030-037>042-050>054-066-281800-
   NORTHEAST IOWA

CITY           SKY/WX    TMP DP  RH WIND       PRES   REMARKS
CEDAR RAPIDS   SUNNY     78  59  51 S12       30.13S
CHARLES CITY * SUNNY     77  57  50 SE15G22   30.12S
CLINTON *      SUNNY     79  57  47 SE14      30.18S HX  80
DECORAH *      SUNNY     77  59  53 S10       30.12F
DUBUQUE        MOSUNNY   77  57  50 S15       30.16S
MONTICELLO *   MOSUNNY   79  59  50 S13G22    30.14F HX  80
OELWEIN *      MOSUNNY   79  55  44 S16       30.13F
WATERLOO       PTSUNNY   78  57  48 S14G20    30.10F
$$

IAZ064-065-067-068-078-281800-
   EAST CENTRAL IOWA

CITY           SKY/WX    TMP DP  RH WIND       PRES   REMARKS
DAVENPORT      SUNNY     80  56  43 SE17      30.16S HX  80
IOWA CITY      MOSUNNY   77  58  51 S15       30.14F
MT. PLEASANT * MOSUNNY   77  55  47 SE15      30.14S
MUSCATINE *    MOSUNNY   79  57  47 SE14G22   30.14F HX  80
QUAD CITIES    SUNNY     80  55  42 SE15G22   30.14F HX  80
$$

IAZ062-063-075>077-085>089-095>099-281800-
   SOUTHEAST IOWA

CITY           SKY/WX    TMP DP  RH WIND       PRES   REMARKS
BURLINGTON     PTSUNNY   77  56  48 SE14      30.14S
FAIRFIELD *    SUNNY     77  57  50 SE17      30.13S
FORT MADISON * SUNNY     75  61  60 SE12      30.15S
KEOKUK *       SUNNY     75  61  60 SE13      30.13S
OSKALOOSA *      N/A     77  59  53 SE18G24   30.12S
CENTERVILLE *  SUNNY     73  73 100 SE13      30.14S
OTTUMWA        PTSUNNY   76  59  55 S10       30.12S
WASHINGTON *   SUNNY     79  57  47 SE16G24   30.14F HX  80
$$

ABBREVIATIONS USED IN REMARKS
   TC - TEMPERATURES IN CELSIUS
  WCI - WIND CHILL INDEX
   HX - HEAT INDEX
  VSB - VISIBILITY
$$



USA.gov is the U.S. government's official web portal to all federal, state and local government web resources and services.